FENGYUN 1C DEB

Satellite information

Favourite Embed

Satellite Type and Status

DEBRISIN ORBIT

Key statistics

Satellite FENGYUN 1C DEB at a glance.

Uptime

9668

Days in orbit

Revolutions

≈ 13.8

Per day

Orbit

SSO

Sun Synchronous Orbit

Inclination

99.2

Latest

Satellite identification and parameters

Extended collection of information and parameters for FENGYUN 1C DEB.

Object identification

Identified? True

Debris? True

Object name: FENGYUN 1C DEB

International designator: 1999-025ACF

Object number (NORAD): 30368

Object ID (CCSDS): 30368

Country: PEOPLES REPUBLIC OF CHINA (PRC)

Current information (Y/N): Y

RCS size: SMALL

Orbital parameters

Period: 104.703 minutes

Inclination: 99.1873 deg

SMA: 7358.664 km

Apoapsis: 1118.378 km

Periapsis: 842.681 km

RAAN: 47.47 deg

Eccentricy: 0.01873284

Argument of periapsis: 71.8063 deg

Mean anomaly: 47.4265 deg

Mean motion: 13.7532164 rev/day

Mean motion (dot): 0.00000172 rev/day2

B* drag term: 0.0001956847 1/REarth

Two-line elements (TLE)

Creation date: Oct. 27, 2025, 2:46 a.m.

Reference frame: TEME

Reference center: EARTH

Epoch: Oct. 26, 2025, 8:43 p.m. UTC

TLE line 0: 0 FENGYUN 1C DEB

TLE line 1: 1 30368U 99025ACF 25299.86342021 .00000172 00000-0 19568-3 0 9990

TLE line 2: 2 30368 99.1873 47.4700 0187328 71.8063 47.4265 13.75321640940176

Live tracking on map

Real-time ground track for satellite FENGYUN 1C DEB.

In-orbit conjunctions

A list of the most updated potential collisions computed for object FENGYUN 1C DEB.

Target Orbit TCA Probability of collision Miss distance Type
MSX SSO 2025-04-17 05:20:53 0.0003731064 368.0 (m) PAYLOAD
NOAA 16 DEB SSO 2024-11-09 20:10:17 0.0001106526 546.0 (m) DEBRIS

Associated space launch

Chinese polar orbiting meteorological satellite

FENGYUN 1C DEB was lifted into orbit during the mission ‘Long March 4B | Feng Yun 1C’, on board a Long March 4B space rocket.

The launch took place on May 10, 1999, 1:33 a.m. from Launch Complex 7.

For more information about the launch, click the button.

Launch to space Long March 4B | Feng Yun 1C
Long March 4B | Feng Yun 1C

Agency: N/A

Status: Launch Successful

Launch date: May 10, 1999, 1:33 a.m. UTC

Rocket: Long March 4B

Launch pad: Launch Complex 7

Location: Taiyuan Satellite Launch Center, People's Republic of China

...

Latest news about this satellite

There are no fresh news available about this satellite. Check back as we update our databases every day.


Newsletter sign-up

Weekly statistics, charts and insights to help you stay on top of the space industry.